Regional Weather Roundup
Issued by NWS

Home | Current Version | Previous Version | Graphics & Text | Print | Product List | Glossary On
Versions: 1 2 3 4 5 6 7 8 9 10 11 12 13 14 15 16 17 18 19 20 21 22 23 24 25 26 27 28 29 30 31 32 33 34 35 36 37 38 39 40 41 42 43 44 45 46 47 48 49 50
000
ASUS43 KTOP 292259
RWRKS

WEATHER ROUNDUP FOR KANSAS
NATIONAL WEATHER SERVICE GOODLAND KS
600 PM CDT SUN MAY 29 2016

NOTE:  "FAIR" INDICATES FEW OR NO CLOUDS BELOW 12,000 FEET WITH NO
SIGNIFICANT WEATHER AND/OR OBSTRUCTIONS TO VISIBILITY.

KSZ001>006-013>018-027>032-041>047-300000-
NORTHWEST KANSAS

CITY           SKY/WX    TMP DP  RH WIND       PRES   REMARKS
GOODLAND       CLOUDY    72  53  51 SE26G37   30.01R
HAYS           CLOUDY    77  61  57 SW8       30.04R
HILL CITY      CLOUDY    76  44  32 S23G39    30.04R
RUSSELL        CLOUDY    81  63  54 S8        30.01S
$$

KSZ061>065-074>080-084>089-300000-
SOUTHWEST KANSAS

CITY           SKY/WX    TMP DP  RH WIND       PRES   REMARKS
DODGE CITY     CLOUDY    75  49  39 S17       30.04S
ELKHART          N/A     63  50  63 SE25        N/A
GARDEN CITY    CLOUDY    74  47  38 S18G29    30.06R
GREAT BEND     CLOUDY    81  57  44 S7        30.02S
LIBERAL        CLOUDY    72  48  43 S28G35    30.00F
$$

KSZ066>073-081>083-090>101-300000-
SOUTHEAST KANSAS

CITY           SKY/WX    TMP DP  RH WIND       PRES   REMARKS
CHANUTE        CLOUDY    80  69  69 S3        30.05F
COFFEYVILLE    CLOUDY    78  71  79 NW6       30.05F
HUTCHINSON     CLOUDY    82  62  50 SE12G23   30.05R
MEDICINE LODGE   N/A     79  54  41 E7        30.03R
NEWTON         MOSUNNY   79  54  41 S18G25    30.10R
PARSONS        CLOUDY    79  70  74 W3        30.08S
WICHITA INTL   PTSUNNY   75  58  55 SE20G28   30.05R
WICHITA JABRA  MOSUNNY   74  57  55 SE18G25   30.06S
WINFIELD       PTSUNNY   75  55  49 E13G22    30.07F
$$

KSZ007>012-019>026-033>040-048>060-102>105-300000-
NORTHEAST KANSAS

CITY           SKY/WX    TMP DP  RH WIND       PRES   REMARKS
CONCORDIA      CLOUDY    74  58  57 S16       30.03R THUNDER
EMPORIA        SUNNY     77  65  66 S9        30.05F
LAWRENCE       CLOUDY    81  60  48 S8        30.03F
MANHATTAN      CLOUDY    71  65  81 CALM      30.02S
OLATHE IND     CLOUDY    82  59  45 S9        30.05F
OLATHE EXE     MOSUNNY   81  61  50 S5        30.05F
SALINA         CLOUDY    75  65  70 SE3       30.03F
TOPEKA BILLARD CLOUDY    80  62  54 SE7       30.02F
TOPEKA FORBES  CLOUDY    81  65  58 SE7       30.03F
$$




USA.gov is the U.S. government's official web portal to all federal, state and local government web resources and services.